Hlavní strana
METAR-TAF:

METAR-TAF

Letiště :

Madison, Indiana, Spojené státy americké

zeměpisná šířka: 38-45-36N, zeměpisná délka: 085-27-53W, výška: 250 m

Aktuální stav počasí

Zpráva byla vytvořena před 33 minutami, v 06:15 UTC
Západní vítr 3 kt
Teplota 5°C
Vlhkost vzduchu 100%
Tlak 1014 hPa
Viditelnost: 8.0 km
Zataženo ve výšce 300 ft

METAR: KIMS 210615Z AUTO 26003KT 5SM OVC003 05/05 A2993 RMK AO1

Čas: 02:48 (06:48 UTC)


TAF: chybějící

Stav a předpovědi počasí z více než 4 000 letišť (zprávy METAR a TAF).

Červené a žluté tečky na mapě představují dostupné meteorologické stanice.

Když kurzor umístíte na tečku, zobrazí se název stanice.

Pak kliknutím zobrazíte stav a předpověď počasí.

Chcete-li změnit mapu, kliknutím na zelené tlačítko se znaménkem +mapu přiblížíte, kliknutím na zelené tlačítko se znaménkem – mapu oddálíte a kliknutím na zelené šipky přejdete na sousední mapy.


METAR-TAF: